Year,Month,Day,Hour,Minute,Value (Times are PST for windgust in km/hr)
2013,02,23,00,00,16.10
2013,02,23,00,01,17.70
2013,02,23,00,02,9.60
2013,02,23,00,03,9.60
2013,02,23,00,04,19.30
2013,02,23,00,05,9.60
2013,02,23,00,06,9.60
2013,02,23,00,07,8.10
2013,02,23,00,08,11.30
2013,02,23,00,09,8.10
2013,02,23,00,10,6.40
2013,02,23,00,11,14.50
2013,02,23,00,12,11.30
2013,02,23,00,13,17.70
2013,02,23,00,14,22.50
2013,02,23,00,15,22.50
2013,02,23,00,16,11.30
2013,02,23,00,17,11.30
2013,02,23,00,18,14.50
2013,02,23,00,19,14.50
2013,02,23,00,20,11.30
2013,02,23,00,21,9.60
2013,02,23,00,22,12.90
2013,02,23,00,23,16.10
2013,02,23,00,24,16.10
2013,02,23,00,25,20.90
2013,02,23,00,26,14.50
2013,02,23,00,27,32.20
2013,02,23,00,28,17.70
2013,02,23,00,29,11.30
2013,02,23,00,30,16.10
2013,02,23,00,31,17.70
2013,02,23,00,32,16.10
2013,02,23,00,33,17.70
2013,02,23,00,34,12.90
2013,02,23,00,35,16.10
2013,02,23,00,36,19.30
2013,02,23,00,37,19.30
2013,02,23,00,38,22.50
2013,02,23,00,39,16.10
2013,02,23,00,40,9.60
2013,02,23,00,41,20.90
2013,02,23,00,42,14.50
2013,02,23,00,43,8.10
2013,02,23,00,44,9.60
2013,02,23,00,45,12.90
2013,02,23,00,46,19.30
2013,02,23,00,47,16.10
2013,02,23,00,48,11.30
2013,02,23,00,49,9.60
2013,02,23,00,50,9.60
2013,02,23,00,51,16.10
2013,02,23,00,52,20.90
2013,02,23,00,53,16.10
2013,02,23,00,54,20.90
2013,02,23,00,55,11.30
2013,02,23,00,56,11.30
2013,02,23,00,57,11.30
2013,02,23,00,58,9.60
2013,02,23,00,59,4.80
2013,02,23,01,00,6.40
2013,02,23,01,01,8.10
2013,02,23,01,02,9.60
2013,02,23,01,03,6.40
2013,02,23,01,04,6.40
2013,02,23,01,05,8.10
2013,02,23,01,06,8.10
2013,02,23,01,07,11.30
2013,02,23,01,08,22.50
2013,02,23,01,09,19.30
2013,02,23,01,10,17.70
2013,02,23,01,11,14.50
2013,02,23,01,12,16.10
2013,02,23,01,13,22.50
2013,02,23,01,14,14.50
2013,02,23,01,15,20.90
2013,02,23,01,16,16.10
2013,02,23,01,17,17.70
2013,02,23,01,18,20.90
2013,02,23,01,19,11.30
2013,02,23,01,20,14.50
2013,02,23,01,21,17.70
2013,02,23,01,22,9.60
2013,02,23,01,23,17.70
2013,02,23,01,24,14.50
2013,02,23,01,25,24.20
2013,02,23,01,26,14.50
2013,02,23,01,27,8.10
2013,02,23,01,28,9.60
2013,02,23,01,29,9.60
2013,02,23,01,30,8.10
2013,02,23,01,31,22.50
2013,02,23,01,32,11.30
2013,02,23,01,33,9.60
2013,02,23,01,34,16.10
2013,02,23,01,35,17.70
2013,02,23,01,36,11.30
2013,02,23,01,37,19.30
2013,02,23,01,38,17.70
2013,02,23,01,39,17.70
2013,02,23,01,40,17.70
2013,02,23,01,41,14.50
2013,02,23,01,42,16.10
2013,02,23,01,43,16.10
2013,02,23,01,44,9.60
2013,02,23,01,45,16.10
2013,02,23,01,46,27.40
2013,02,23,01,47,24.20
2013,02,23,01,48,9.60
2013,02,23,01,49,19.30
2013,02,23,01,50,9.60
2013,02,23,01,51,17.70
2013,02,23,01,52,24.20
2013,02,23,01,53,25.70
2013,02,23,01,54,20.90
2013,02,23,01,55,8.10
2013,02,23,01,56,11.30
2013,02,23,01,57,17.70
2013,02,23,01,58,16.10
2013,02,23,01,59,16.10
2013,02,23,02,00,17.70
2013,02,23,02,01,16.10
2013,02,23,02,02,22.50
2013,02,23,02,03,17.70
2013,02,23,02,04,17.70
2013,02,23,02,05,14.50
2013,02,23,02,06,9.60
2013,02,23,02,07,9.60
2013,02,23,02,08,14.50
2013,02,23,02,09,14.50
2013,02,23,02,10,11.30
2013,02,23,02,11,14.50
2013,02,23,02,12,17.70
2013,02,23,02,13,20.90
2013,02,23,02,14,11.30
2013,02,23,02,15,20.90
2013,02,23,02,16,20.90
2013,02,23,02,17,11.30
2013,02,23,02,18,11.30
2013,02,23,02,19,20.90
2013,02,23,02,20,16.10
2013,02,23,02,21,17.70
2013,02,23,02,22,16.10
2013,02,23,02,23,25.70
2013,02,23,02,24,17.70
2013,02,23,02,25,29.00
2013,02,23,02,26,30.60
2013,02,23,02,27,22.50
2013,02,23,02,28,25.70
2013,02,23,02,29,14.50
2013,02,23,02,30,9.60
2013,02,23,02,31,11.30
2013,02,23,02,32,19.30
2013,02,23,02,33,19.30
2013,02,23,02,34,14.50
2013,02,23,02,35,16.10
2013,02,23,02,36,11.30
2013,02,23,02,37,11.30
2013,02,23,02,38,20.90
2013,02,23,02,39,25.70
2013,02,23,02,40,16.10
2013,02,23,02,41,12.90
2013,02,23,02,42,19.30
2013,02,23,02,43,14.50
2013,02,23,02,44,32.20
2013,02,23,02,45,29.00
2013,02,23,02,46,14.50
2013,02,23,02,47,11.30
2013,02,23,02,48,11.30
2013,02,23,02,49,6.40
2013,02,23,02,50,9.60
2013,02,23,02,51,17.70
2013,02,23,02,52,11.30
2013,02,23,02,53,9.60
2013,02,23,02,54,16.10
2013,02,23,02,55,11.30
2013,02,23,02,56,17.70
2013,02,23,02,57,11.30
2013,02,23,02,58,17.70
2013,02,23,02,59,8.10
2013,02,23,03,00,20.90
2013,02,23,03,01,14.50
2013,02,23,03,02,11.30
2013,02,23,03,03,19.30
2013,02,23,03,04,25.70
2013,02,23,03,05,20.90
2013,02,23,03,06,17.70
2013,02,23,03,07,25.70
2013,02,23,03,08,30.60
2013,02,23,03,09,16.10
2013,02,23,03,10,17.70
2013,02,23,03,11,22.50
2013,02,23,03,12,30.60
2013,02,23,03,13,20.90
2013,02,23,03,14,22.50
2013,02,23,03,15,24.20
2013,02,23,03,16,27.40
2013,02,23,03,17,19.30
2013,02,23,03,18,20.90
2013,02,23,03,19,27.40
2013,02,23,03,20,25.70
2013,02,23,03,21,19.30
2013,02,23,03,22,22.50
2013,02,23,03,23,19.30
2013,02,23,03,24,19.30
2013,02,23,03,25,30.60
2013,02,23,03,26,25.70
2013,02,23,03,27,29.00
2013,02,23,03,28,17.70
2013,02,23,03,29,14.50
2013,02,23,03,30,22.50
2013,02,23,03,31,25.70
2013,02,23,03,32,20.90
2013,02,23,03,33,22.50
2013,02,23,03,34,29.00
2013,02,23,03,35,20.90
2013,02,23,03,36,22.50
2013,02,23,03,37,16.10
2013,02,23,03,38,22.50
2013,02,23,03,39,25.70
2013,02,23,03,40,17.70
2013,02,23,03,41,17.70
2013,02,23,03,42,14.50
2013,02,23,03,43,12.90
2013,02,23,03,44,25.70
2013,02,23,03,45,27.40
2013,02,23,03,46,19.30
2013,02,23,03,47,24.20
2013,02,23,03,48,25.70
2013,02,23,03,49,19.30
2013,02,23,03,50,14.50
2013,02,23,03,51,19.30
2013,02,23,03,52,24.20
2013,02,23,03,53,22.50
2013,02,23,03,54,24.20
2013,02,23,03,55,27.40
2013,02,23,03,56,22.50
2013,02,23,03,57,17.70
2013,02,23,03,58,20.90
2013,02,23,03,59,12.90
2013,02,23,04,00,14.50
2013,02,23,04,01,19.30
2013,02,23,04,02,17.70
2013,02,23,04,03,20.90
2013,02,23,04,04,29.00
2013,02,23,04,05,19.30
2013,02,23,04,06,25.70
2013,02,23,04,07,20.90
2013,02,23,04,08,16.10
2013,02,23,04,09,19.30
2013,02,23,04,10,24.20
2013,02,23,04,11,24.20
2013,02,23,04,12,14.50
2013,02,23,04,13,22.50
2013,02,23,04,14,17.70
2013,02,23,04,15,19.30
2013,02,23,04,16,20.90
2013,02,23,04,17,19.30
2013,02,23,04,18,11.30
2013,02,23,04,19,11.30
2013,02,23,04,20,19.30
2013,02,23,04,21,16.10
2013,02,23,04,22,17.70
2013,02,23,04,23,11.30
2013,02,23,04,24,20.90
2013,02,23,04,25,14.50
2013,02,23,04,26,19.30
2013,02,23,04,27,22.50
2013,02,23,04,28,16.10
2013,02,23,04,29,17.70
2013,02,23,04,30,27.40
2013,02,23,04,31,22.50
2013,02,23,04,32,19.30
2013,02,23,04,33,20.90
2013,02,23,04,34,14.50
2013,02,23,04,35,11.30
2013,02,23,04,36,22.50
2013,02,23,04,37,32.20
2013,02,23,04,38,27.40
2013,02,23,04,39,30.60
2013,02,23,04,40,20.90
2013,02,23,04,41,16.10
2013,02,23,04,42,16.10
2013,02,23,04,43,20.90
2013,02,23,04,44,16.10
2013,02,23,04,45,14.50
2013,02,23,04,46,19.30
2013,02,23,04,47,22.50
2013,02,23,04,48,30.60
2013,02,23,04,49,19.30
2013,02,23,04,50,9.60
2013,02,23,04,51,14.50
2013,02,23,04,52,12.90
2013,02,23,04,53,8.10
2013,02,23,04,54,19.30
2013,02,23,04,55,30.60
2013,02,23,04,56,14.50
2013,02,23,04,57,16.10
2013,02,23,04,58,17.70
2013,02,23,04,59,25.70
2013,02,23,05,00,27.40
2013,02,23,05,01,30.60
2013,02,23,05,02,22.50
2013,02,23,05,03,17.70
2013,02,23,05,04,32.20
2013,02,23,05,05,19.30
2013,02,23,05,06,19.30
2013,02,23,05,07,19.30
2013,02,23,05,08,16.10
2013,02,23,05,09,25.70
2013,02,23,05,10,19.30
2013,02,23,05,11,17.70
2013,02,23,05,12,11.30
2013,02,23,05,13,32.20
2013,02,23,05,14,29.00
2013,02,23,05,15,19.30
2013,02,23,05,16,19.30
2013,02,23,05,17,19.30
2013,02,23,05,18,27.40
2013,02,23,05,19,16.10
2013,02,23,05,20,9.60
2013,02,23,05,21,11.30
2013,02,23,05,22,14.50
2013,02,23,05,23,17.70
2013,02,23,05,24,19.30
2013,02,23,05,25,20.90
2013,02,23,05,26,16.10
2013,02,23,05,27,11.30
2013,02,23,05,28,9.60
2013,02,23,05,29,11.30
2013,02,23,05,30,14.50
2013,02,23,05,31,16.10
2013,02,23,05,32,16.10
2013,02,23,05,33,14.50
2013,02,23,05,34,19.30
2013,02,23,05,35,14.50
2013,02,23,05,36,17.70
2013,02,23,05,37,8.10
2013,02,23,05,38,19.30
2013,02,23,05,39,17.70
2013,02,23,05,40,14.50
2013,02,23,05,41,24.20
2013,02,23,05,42,9.60
2013,02,23,05,43,19.30
2013,02,23,05,44,20.90
2013,02,23,05,45,22.50
2013,02,23,05,46,27.40
2013,02,23,05,47,14.50
2013,02,23,05,48,16.10
2013,02,23,05,49,16.10
2013,02,23,05,50,17.70
2013,02,23,05,51,11.30
2013,02,23,05,52,11.30
2013,02,23,05,53,11.30
2013,02,23,05,54,9.60
2013,02,23,05,55,11.30
2013,02,23,05,56,8.10
2013,02,23,05,57,14.50
2013,02,23,05,58,22.50
2013,02,23,05,59,11.30
2013,02,23,06,00,27.40
2013,02,23,06,01,24.20
2013,02,23,06,02,16.10
2013,02,23,06,03,12.90
2013,02,23,06,04,12.90
2013,02,23,06,05,17.70
2013,02,23,06,06,29.00
2013,02,23,06,07,16.10
2013,02,23,06,08,17.70
2013,02,23,06,09,19.30
2013,02,23,06,10,16.10
2013,02,23,06,11,8.10
2013,02,23,06,12,16.10
2013,02,23,06,13,9.60
2013,02,23,06,14,14.50
2013,02,23,06,15,14.50
2013,02,23,06,16,12.90
2013,02,23,06,17,14.50
2013,02,23,06,18,11.30
2013,02,23,06,19,6.40
2013,02,23,06,20,9.60
2013,02,23,06,21,8.10
2013,02,23,06,22,8.10
2013,02,23,06,23,4.80
2013,02,23,06,24,9.60
2013,02,23,06,25,6.40
2013,02,23,06,26,6.40
2013,02,23,06,27,14.50
2013,02,23,06,28,6.40
2013,02,23,06,29,4.80
2013,02,23,06,30,3.20
2013,02,23,06,31,6.40
2013,02,23,06,32,6.40
2013,02,23,06,33,4.80
2013,02,23,06,34,4.80
2013,02,23,06,35,4.80
2013,02,23,06,36,4.80
2013,02,23,06,37,4.80
2013,02,23,06,38,4.80
2013,02,23,06,39,9.60
2013,02,23,06,40,4.80
2013,02,23,06,41,3.20
2013,02,23,06,42,3.20
2013,02,23,06,43,1.60
2013,02,23,06,44,1.60
2013,02,23,06,45,3.20
2013,02,23,06,46,3.20
2013,02,23,06,47,3.20
2013,02,23,06,48,1.60
2013,02,23,06,49,1.60
2013,02,23,06,50,3.20
2013,02,23,06,51,3.20
2013,02,23,06,52,4.80
2013,02,23,06,53,3.20
2013,02,23,06,54,3.20
2013,02,23,06,55,4.80
2013,02,23,06,56,3.20
2013,02,23,06,57,1.60
2013,02,23,06,58,3.20
2013,02,23,06,59,3.20
2013,02,23,07,00,3.20
2013,02,23,07,01,3.20
2013,02,23,07,02,4.80
2013,02,23,07,03,3.20
2013,02,23,07,04,6.40
2013,02,23,07,05,3.20
2013,02,23,07,06,4.80
2013,02,23,07,07,4.80
2013,02,23,07,08,3.20
2013,02,23,07,09,9.60
2013,02,23,07,10,9.60
2013,02,23,07,11,6.40
2013,02,23,07,12,6.40
2013,02,23,07,13,3.20
2013,02,23,07,14,3.20
2013,02,23,07,15,1.60
2013,02,23,07,16,1.60
2013,02,23,07,17,3.20
2013,02,23,07,18,1.60
2013,02,23,07,19,3.20
2013,02,23,07,20,3.20
2013,02,23,07,21,8.10
2013,02,23,07,22,6.40
2013,02,23,07,23,3.20
2013,02,23,07,24,8.10
2013,02,23,07,25,4.80
2013,02,23,07,26,3.20
2013,02,23,07,27,4.80
2013,02,23,07,28,3.20
2013,02,23,07,29,4.80
2013,02,23,07,30,1.60
2013,02,23,07,31,3.20
2013,02,23,07,32,6.40
2013,02,23,07,33,9.60
2013,02,23,07,34,8.10
2013,02,23,07,35,4.80
2013,02,23,07,36,3.20
2013,02,23,07,37,6.40
2013,02,23,07,38,4.80
2013,02,23,07,39,3.20
2013,02,23,07,40,4.80
2013,02,23,07,41,8.10
2013,02,23,07,42,8.10
2013,02,23,07,43,4.80
2013,02,23,07,44,8.10
2013,02,23,07,45,6.40
2013,02,23,07,46,4.80
2013,02,23,07,47,22.50
2013,02,23,07,48,9.60
2013,02,23,07,49,8.10
2013,02,23,07,50,4.80
2013,02,23,07,51,6.40
2013,02,23,07,52,4.80
2013,02,23,07,53,9.60
2013,02,23,07,54,14.50
2013,02,23,07,55,9.60
2013,02,23,07,56,9.60
2013,02,23,07,57,19.30
2013,02,23,07,58,11.30
2013,02,23,07,59,17.70
2013,02,23,08,00,11.30
2013,02,23,08,01,8.10
2013,02,23,08,02,12.90
2013,02,23,08,03,6.40
2013,02,23,08,04,20.90
2013,02,23,08,05,9.60
2013,02,23,08,06,9.60
2013,02,23,08,07,9.60
2013,02,23,08,08,25.70
2013,02,23,08,09,17.70
2013,02,23,08,10,9.60
2013,02,23,08,11,19.30
2013,02,23,08,12,19.30
2013,02,23,08,13,19.30
2013,02,23,08,14,16.10
2013,02,23,08,15,16.10
2013,02,23,08,16,25.70
2013,02,23,08,17,24.20
2013,02,23,08,18,22.50
2013,02,23,08,19,27.40
2013,02,23,08,20,29.00
2013,02,23,08,21,25.70
2013,02,23,08,22,27.40
2013,02,23,08,23,25.70
2013,02,23,08,24,30.60
2013,02,23,08,25,25.70
2013,02,23,08,26,20.90
2013,02,23,08,27,24.20
2013,02,23,08,28,29.00
2013,02,23,08,29,20.90
2013,02,23,08,30,19.30
2013,02,23,08,31,20.90
2013,02,23,08,32,17.70
2013,02,23,08,33,27.40
2013,02,23,08,34,22.50
2013,02,23,08,35,37.00
2013,02,23,08,36,20.90
2013,02,23,08,37,20.90
2013,02,23,08,38,14.50
2013,02,23,08,39,17.70
2013,02,23,08,40,24.20
2013,02,23,08,41,17.70
2013,02,23,08,42,17.70
2013,02,23,08,43,22.50
2013,02,23,08,44,19.30
2013,02,23,08,45,19.30
2013,02,23,08,46,8.10
2013,02,23,08,47,14.50
2013,02,23,08,48,20.90
2013,02,23,08,49,16.10
2013,02,23,08,50,14.50
2013,02,23,08,51,9.60
2013,02,23,08,52,14.50
2013,02,23,08,53,12.90
2013,02,23,08,54,11.30
2013,02,23,08,55,17.70
2013,02,23,08,56,12.90
2013,02,23,08,57,27.40
2013,02,23,08,58,17.70
2013,02,23,08,59,22.50
2013,02,23,09,00,17.70
2013,02,23,09,01,35.40
2013,02,23,09,02,17.70
2013,02,23,09,03,16.10
2013,02,23,09,04,11.30
2013,02,23,09,05,11.30
2013,02,23,09,06,19.30
2013,02,23,09,07,14.50
2013,02,23,09,08,24.20
2013,02,23,09,09,17.70
2013,02,23,09,10,11.30
2013,02,23,09,11,19.30
2013,02,23,09,12,14.50
2013,02,23,09,13,24.20
2013,02,23,09,14,17.70
2013,02,23,09,15,11.30
2013,02,23,09,16,9.60
2013,02,23,09,17,14.50
2013,02,23,09,18,19.30
2013,02,23,09,19,19.30
2013,02,23,09,20,20.90
2013,02,23,09,21,29.00
2013,02,23,09,22,27.40
2013,02,23,09,23,16.10
2013,02,23,09,24,20.90
2013,02,23,09,25,16.10
2013,02,23,09,26,17.70
2013,02,23,09,27,19.30
2013,02,23,09,28,19.30
2013,02,23,09,29,22.50
2013,02,23,09,30,11.30
2013,02,23,09,31,17.70
2013,02,23,09,32,20.90
2013,02,23,09,33,17.70
2013,02,23,09,34,30.60
2013,02,23,09,35,11.30
2013,02,23,09,36,19.30
2013,02,23,09,37,16.10
2013,02,23,09,38,27.40
2013,02,23,09,39,29.00
2013,02,23,09,40,29.00
2013,02,23,09,41,20.90
2013,02,23,09,42,24.20
2013,02,23,09,43,25.70
2013,02,23,09,44,24.20
2013,02,23,09,45,24.20
2013,02,23,09,46,24.20
2013,02,23,09,47,22.50
2013,02,23,09,48,19.30
2013,02,23,09,49,20.90
2013,02,23,09,50,16.10
2013,02,23,09,51,17.70
2013,02,23,09,52,17.70
2013,02,23,09,53,24.20
2013,02,23,09,54,14.50
2013,02,23,09,55,16.10
2013,02,23,09,56,19.30
2013,02,23,09,57,8.10
2013,02,23,09,58,19.30
2013,02,23,09,59,22.50
2013,02,23,10,00,27.40
2013,02,23,10,01,24.20
2013,02,23,10,02,24.20
2013,02,23,10,03,25.70
2013,02,23,10,04,29.00
2013,02,23,10,05,32.20
2013,02,23,10,06,29.00
2013,02,23,10,07,25.70
2013,02,23,10,08,32.20
2013,02,23,10,09,29.00
2013,02,23,10,10,17.70
2013,02,23,10,11,30.60
2013,02,23,10,12,30.60
2013,02,23,10,13,19.30
2013,02,23,10,14,17.70
2013,02,23,10,15,12.90
2013,02,23,10,16,27.40
2013,02,23,10,17,17.70
2013,02,23,10,18,22.50
2013,02,23,10,19,20.90
2013,02,23,10,20,20.90
2013,02,23,10,21,30.60
2013,02,23,10,22,32.20
2013,02,23,10,23,16.10
2013,02,23,10,24,20.90
2013,02,23,10,25,27.40
2013,02,23,10,26,19.30
2013,02,23,10,27,14.50
2013,02,23,10,28,20.90
2013,02,23,10,29,19.30
2013,02,23,10,30,16.10
2013,02,23,10,31,20.90
2013,02,23,10,32,19.30
2013,02,23,10,33,29.00
2013,02,23,10,34,19.30
2013,02,23,10,35,32.20
2013,02,23,10,36,17.70
2013,02,23,10,37,17.70
2013,02,23,10,38,16.10
2013,02,23,10,39,19.30
2013,02,23,10,40,17.70
2013,02,23,10,41,25.70
2013,02,23,10,42,19.30
2013,02,23,10,43,11.30
2013,02,23,10,44,20.90
2013,02,23,10,45,14.50
2013,02,23,10,46,22.50
2013,02,23,10,47,16.10
2013,02,23,10,48,17.70
2013,02,23,10,49,19.30
2013,02,23,10,50,24.20
2013,02,23,10,51,19.30
2013,02,23,10,52,9.60
2013,02,23,10,53,11.30
2013,02,23,10,54,27.40
2013,02,23,10,55,19.30
2013,02,23,10,56,25.70
2013,02,23,10,57,19.30
2013,02,23,10,58,9.60
2013,02,23,10,59,9.60
2013,02,23,11,00,17.70
2013,02,23,11,01,25.70
2013,02,23,11,02,25.70
2013,02,23,11,03,27.40
2013,02,23,11,04,32.20
2013,02,23,11,05,24.20
2013,02,23,11,06,29.00
2013,02,23,11,07,25.70
2013,02,23,11,08,22.50
2013,02,23,11,09,25.70
2013,02,23,11,10,22.50
2013,02,23,11,11,17.70
2013,02,23,11,12,27.40
2013,02,23,11,13,30.60
2013,02,23,11,14,17.70
2013,02,23,11,15,27.40
2013,02,23,11,16,33.80
2013,02,23,11,17,32.20
2013,02,23,11,18,19.30
2013,02,23,11,19,17.70
2013,02,23,11,20,27.40
2013,02,23,11,21,30.60
2013,02,23,11,22,27.40
2013,02,23,11,23,27.40
2013,02,23,11,24,19.30
2013,02,23,11,25,25.70
2013,02,23,11,26,25.70
2013,02,23,11,27,35.40
2013,02,23,11,28,33.80
2013,02,23,11,29,30.60
2013,02,23,11,30,9.60
2013,02,23,11,31,17.70
2013,02,23,11,32,24.20
2013,02,23,11,33,38.60
2013,02,23,11,34,33.80
2013,02,23,11,35,19.30
2013,02,23,11,36,37.00
2013,02,23,11,37,25.70
2013,02,23,11,38,27.40
2013,02,23,11,39,22.50
2013,02,23,11,40,35.40
2013,02,23,11,41,27.40
2013,02,23,11,42,35.40
2013,02,23,11,43,25.70
2013,02,23,11,44,17.70
2013,02,23,11,45,16.10
2013,02,23,11,46,33.80
2013,02,23,11,47,33.80
2013,02,23,11,48,27.40
2013,02,23,11,49,32.20
2013,02,23,11,50,33.80
2013,02,23,11,51,30.60
2013,02,23,11,52,25.70
2013,02,23,11,53,27.40
2013,02,23,11,54,32.20
2013,02,23,11,55,20.90
2013,02,23,11,56,25.70
2013,02,23,11,57,33.80
2013,02,23,11,58,35.40
2013,02,23,11,59,32.20
2013,02,23,12,00,29.00
2013,02,23,12,01,32.20
2013,02,23,12,02,20.90
2013,02,23,12,03,33.80
2013,02,23,12,04,29.00
2013,02,23,12,05,33.80
2013,02,23,12,06,32.20
2013,02,23,12,07,35.40
2013,02,23,12,08,17.70
2013,02,23,12,09,29.00
2013,02,23,12,10,25.70
2013,02,23,12,11,16.10
2013,02,23,12,12,22.50
2013,02,23,12,13,22.50
2013,02,23,12,14,20.90
2013,02,23,12,15,25.70
2013,02,23,12,16,27.40
2013,02,23,12,17,20.90
2013,02,23,12,18,27.40
2013,02,23,12,19,35.40
2013,02,23,12,20,16.10
2013,02,23,12,21,32.20
2013,02,23,12,22,19.30
2013,02,23,12,23,27.40
2013,02,23,12,24,24.20
2013,02,23,12,25,29.00
2013,02,23,12,26,37.00
2013,02,23,12,27,25.70
2013,02,23,12,28,33.80
2013,02,23,12,29,33.80
2013,02,23,12,30,30.60
2013,02,23,12,31,33.80
2013,02,23,12,32,35.40
2013,02,23,12,33,32.20
2013,02,23,12,34,37.00
2013,02,23,12,35,35.40
2013,02,23,12,36,25.70
2013,02,23,12,37,25.70
2013,02,23,12,38,27.40
2013,02,23,12,39,22.50
2013,02,23,12,40,19.30
2013,02,23,12,41,22.50
2013,02,23,12,42,38.60
2013,02,23,12,43,41.80
2013,02,23,12,44,30.60
2013,02,23,12,45,45.10
2013,02,23,12,46,38.60
2013,02,23,12,47,37.00
2013,02,23,12,48,30.60
2013,02,23,12,49,38.60
2013,02,23,12,50,25.70
2013,02,23,12,51,27.40
2013,02,23,12,52,22.50
2013,02,23,12,53,25.70
2013,02,23,12,54,32.20
2013,02,23,12,55,35.40
2013,02,23,12,56,30.60
2013,02,23,12,57,19.30
2013,02,23,12,58,27.40
2013,02,23,12,59,35.40
2013,02,23,13,00,29.00
2013,02,23,13,01,32.20
2013,02,23,13,02,33.80
2013,02,23,13,03,35.40
2013,02,23,13,04,17.70
2013,02,23,13,05,22.50
2013,02,23,13,06,19.30
2013,02,23,13,07,22.50
2013,02,23,13,08,19.30
2013,02,23,13,09,30.60
2013,02,23,13,10,22.50
2013,02,23,13,11,33.80
2013,02,23,13,12,24.20
2013,02,23,13,13,37.00
2013,02,23,13,14,20.90
2013,02,23,13,15,25.70
2013,02,23,13,16,22.50
2013,02,23,13,17,25.70
2013,02,23,13,18,11.30
2013,02,23,13,19,37.00
2013,02,23,13,20,25.70
2013,02,23,13,21,24.20
2013,02,23,13,22,22.50
2013,02,23,13,23,27.40
2013,02,23,13,24,17.70
2013,02,23,13,25,12.90
2013,02,23,13,26,19.30
2013,02,23,13,27,17.70
2013,02,23,13,28,22.50
2013,02,23,13,29,17.70
2013,02,23,13,30,22.50
2013,02,23,13,31,29.00
2013,02,23,13,32,22.50
2013,02,23,13,33,29.00
2013,02,23,13,34,32.20
2013,02,23,13,35,37.00
2013,02,23,13,36,33.80
2013,02,23,13,37,20.90
2013,02,23,13,38,30.60
2013,02,23,13,39,25.70
2013,02,23,13,40,35.40
2013,02,23,13,41,32.20
2013,02,23,13,42,16.10
2013,02,23,13,43,17.70
2013,02,23,13,44,17.70
2013,02,23,13,45,29.00
2013,02,23,13,46,22.50
2013,02,23,13,47,17.70
2013,02,23,13,48,24.20
2013,02,23,13,49,24.20
2013,02,23,13,50,17.70
2013,02,23,13,51,16.10
2013,02,23,13,52,20.90
2013,02,23,13,53,19.30
2013,02,23,13,54,14.50
2013,02,23,13,55,16.10
2013,02,23,13,56,19.30
2013,02,23,13,57,12.90
2013,02,23,13,58,14.50
2013,02,23,13,59,14.50
2013,02,23,14,00,25.70
2013,02,23,14,01,17.70
2013,02,23,14,02,19.30
2013,02,23,14,03,24.20
2013,02,23,14,04,25.70
2013,02,23,14,05,19.30
2013,02,23,14,06,16.10
2013,02,23,14,07,19.30
2013,02,23,14,08,14.50
2013,02,23,14,09,19.30
2013,02,23,14,10,32.20
2013,02,23,14,11,24.20
2013,02,23,14,12,25.70
2013,02,23,14,13,27.40
2013,02,23,14,14,29.00
2013,02,23,14,15,30.60
2013,02,23,14,16,29.00
2013,02,23,14,17,32.20
2013,02,23,14,18,33.80
2013,02,23,14,19,29.00
2013,02,23,14,20,27.40
2013,02,23,14,21,17.70
2013,02,23,14,22,22.50
2013,02,23,14,23,29.00
2013,02,23,14,24,29.00
2013,02,23,14,25,24.20
2013,02,23,14,26,19.30
2013,02,23,14,27,24.20
2013,02,23,14,28,25.70
2013,02,23,14,29,32.20
2013,02,23,14,30,24.20
2013,02,23,14,31,29.00
2013,02,23,14,32,25.70
2013,02,23,14,33,17.70
2013,02,23,14,34,17.70
2013,02,23,14,35,20.90
2013,02,23,14,36,25.70
2013,02,23,14,37,17.70
2013,02,23,14,38,24.20
2013,02,23,14,39,30.60
2013,02,23,14,40,25.70
2013,02,23,14,41,35.40
2013,02,23,14,42,30.60
2013,02,23,14,43,29.00
2013,02,23,14,44,37.00
2013,02,23,14,45,32.20
2013,02,23,14,46,27.40
2013,02,23,14,47,25.70
2013,02,23,14,48,20.90
2013,02,23,14,49,32.20
2013,02,23,14,50,27.40
2013,02,23,14,51,16.10
2013,02,23,14,52,19.30
2013,02,23,14,53,14.50
2013,02,23,14,54,25.70
2013,02,23,14,55,24.20
2013,02,23,14,56,25.70
2013,02,23,14,57,19.30
2013,02,23,14,58,16.10
2013,02,23,14,59,16.10
2013,02,23,15,00,32.20
2013,02,23,15,01,35.40
2013,02,23,15,02,32.20
2013,02,23,15,03,19.30
2013,02,23,15,04,27.40
2013,02,23,15,05,25.70
2013,02,23,15,06,40.20
2013,02,23,15,07,22.50
2013,02,23,15,08,24.20
2013,02,23,15,09,20.90
2013,02,23,15,10,22.50
2013,02,23,15,11,9.60
2013,02,23,15,12,16.10
2013,02,23,15,13,24.20
2013,02,23,15,14,19.30
2013,02,23,15,15,17.70
2013,02,23,15,16,12.90
2013,02,23,15,17,22.50
2013,02,23,15,18,24.20
2013,02,23,15,19,14.50
2013,02,23,15,20,17.70
2013,02,23,15,21,14.50
2013,02,23,15,22,11.30
2013,02,23,15,23,14.50
2013,02,23,15,24,17.70
2013,02,23,15,25,43.50
2013,02,23,15,26,30.60
2013,02,23,15,27,37.00
2013,02,23,15,28,22.50
2013,02,23,15,29,17.70
2013,02,23,15,30,19.30
2013,02,23,15,31,32.20
2013,02,23,15,32,27.40
2013,02,23,15,33,12.90
2013,02,23,15,34,20.90
2013,02,23,15,35,20.90
2013,02,23,15,36,30.60
2013,02,23,15,37,20.90
2013,02,23,15,38,30.60
2013,02,23,15,39,30.60
2013,02,23,15,40,20.90
2013,02,23,15,41,27.40
2013,02,23,15,42,19.30
2013,02,23,15,43,16.10
2013,02,23,15,44,16.10
2013,02,23,15,45,17.70
2013,02,23,15,46,33.80
2013,02,23,15,47,33.80
2013,02,23,15,48,29.00
2013,02,23,15,49,25.70
2013,02,23,15,50,32.20
2013,02,23,15,51,27.40
2013,02,23,15,52,40.20
2013,02,23,15,53,30.60
2013,02,23,15,54,20.90
2013,02,23,15,55,16.10
2013,02,23,15,56,29.00
2013,02,23,15,57,20.90
2013,02,23,15,58,24.20
2013,02,23,15,59,24.20
2013,02,23,16,00,25.70
2013,02,23,16,01,32.20
2013,02,23,16,02,35.40
2013,02,23,16,03,29.00
2013,02,23,16,04,29.00
2013,02,23,16,05,14.50
2013,02,23,16,06,16.10
2013,02,23,16,07,16.10
2013,02,23,16,08,14.50
2013,02,23,16,09,14.50
2013,02,23,16,10,27.40
2013,02,23,16,11,22.50
2013,02,23,16,12,16.10
2013,02,23,16,13,19.30
2013,02,23,16,14,17.70
2013,02,23,16,15,38.60
2013,02,23,16,16,24.20
2013,02,23,16,17,27.40
2013,02,23,16,18,25.70
2013,02,23,16,19,25.70
2013,02,23,16,20,25.70
2013,02,23,16,21,24.20
2013,02,23,16,22,20.90
2013,02,23,16,23,16.10
2013,02,23,16,24,35.40
2013,02,23,16,25,33.80
2013,02,23,16,26,24.20
2013,02,23,16,27,25.70
2013,02,23,16,28,19.30
2013,02,23,16,29,19.30
2013,02,23,16,30,19.30
2013,02,23,16,31,29.00
2013,02,23,16,32,32.20
2013,02,23,16,33,16.10
2013,02,23,16,34,24.20
2013,02,23,16,35,22.50
2013,02,23,16,36,24.20
2013,02,23,16,37,24.20
2013,02,23,16,38,22.50
2013,02,23,16,39,22.50
2013,02,23,16,40,9.60
2013,02,23,16,41,17.70
2013,02,23,16,42,27.40
2013,02,23,16,43,14.50
2013,02,23,16,44,9.60
2013,02,23,16,45,27.40
2013,02,23,16,46,17.70
2013,02,23,16,47,20.90
2013,02,23,16,48,22.50
2013,02,23,16,49,16.10
2013,02,23,16,50,16.10
2013,02,23,16,51,20.90
2013,02,23,16,52,32.20
2013,02,23,16,53,29.00
2013,02,23,16,54,17.70
2013,02,23,16,55,17.70
2013,02,23,16,56,24.20
2013,02,23,16,57,16.10
2013,02,23,16,58,25.70
2013,02,23,16,59,19.30
2013,02,23,17,00,17.70
2013,02,23,17,01,27.40
2013,02,23,17,02,14.50
2013,02,23,17,03,8.10
2013,02,23,17,04,16.10
2013,02,23,17,05,16.10
2013,02,23,17,06,11.30
2013,02,23,17,07,22.50
2013,02,23,17,08,17.70
2013,02,23,17,09,30.60
2013,02,23,17,10,20.90
2013,02,23,17,11,19.30
2013,02,23,17,12,25.70
2013,02,23,17,13,19.30
2013,02,23,17,14,30.60
2013,02,23,17,15,37.00
2013,02,23,17,16,24.20
2013,02,23,17,17,22.50
2013,02,23,17,18,20.90
2013,02,23,17,19,16.10
2013,02,23,17,20,17.70
2013,02,23,17,21,32.20
2013,02,23,17,22,17.70
2013,02,23,17,23,32.20
2013,02,23,17,24,22.50
2013,02,23,17,25,19.30
2013,02,23,17,26,20.90